Time,TemperatureF,DewpointF,PressureIn,WindDirection,WindDirectionDegrees,WindSpeedMPH,WindSpeedGustMPH,Humidity,HourlyPrecipIn,Conditions,Clouds,dailyrainin,SoftwareType,DateUTC
2013-07-24 00:00:00,74.7,36.6,29.84,NW,313,14.0,17.0,25,0.00,,---,0.00,VWS V14.01,2013-07-24 07:00:00,
2013-07-24 00:05:00,74.8,36.7,29.85,NNW,336,4.0,20.0,25,0.00,,---,0.00,VWS V14.01,2013-07-24 07:05:00,
2013-07-24 00:10:00,73.9,37.8,29.85,NW,317,3.0,20.0,27,0.00,,---,0.00,VWS V14.01,2013-07-24 07:10:00,
2013-07-24 00:15:00,73.3,36.4,29.85,NW,306,14.0,14.0,26,0.00,,---,0.00,VWS V14.01,2013-07-24 07:15:00,
2013-07-24 00:20:00,73.3,36.4,29.85,NW,306,10.0,16.0,26,0.00,,---,0.00,VWS V14.01,2013-07-24 07:20:00,
2013-07-24 00:25:00,72.8,35.0,29.85,NW,317,14.0,19.0,25,0.00,,---,0.00,VWS V14.01,2013-07-24 07:25:00,
2013-07-24 00:30:00,72.8,33.9,29.85,NW,310,6.0,14.0,24,0.00,,---,0.00,VWS V14.01,2013-07-24 07:30:00,
2013-07-24 00:35:00,72.6,36.7,29.86,NW,304,5.0,14.0,27,0.00,,---,0.00,VWS V14.01,2013-07-24 07:35:00,
2013-07-24 00:40:00,71.7,38.6,29.86,WNW,295,5.0,14.0,30,0.00,,---,0.00,VWS V14.01,2013-07-24 07:40:00,
2013-07-24 00:45:00,70.6,40.9,29.86,West,281,6.0,8.0,34,0.00,,---,0.00,VWS V14.01,2013-07-24 07:45:00,
2013-07-24 00:50:00,70.6,41.7,29.86,WNW,291,8.0,9.0,35,0.00,,---,0.00,VWS V14.01,2013-07-24 07:50:00,
2013-07-24 00:55:00,70.9,39.6,29.86,NW,308,8.0,10.0,32,0.00,,---,0.00,VWS V14.01,2013-07-24 07:55:00,
2013-07-24 01:00:00,70.4,37.5,29.86,WNW,299,7.0,9.0,30,0.00,,---,0.00,VWS V14.01,2013-07-24 08:00:00,
2013-07-24 01:05:00,71.6,31.9,29.86,NW,304,2.0,9.0,23,0.00,,---,0.00,VWS V14.01,2013-07-24 08:05:00,
2013-07-24 01:10:00,72.3,30.2,29.86,WNW,300,2.0,10.0,21,0.00,,---,0.00,VWS V14.01,2013-07-24 08:10:00,
2013-07-24 01:15:00,73.1,32.0,29.86,NW,325,6.0,6.0,22,0.00,,---,0.00,VWS V14.01,2013-07-24 08:15:00,
2013-07-24 01:20:00,72.7,31.7,29.86,NNW,329,7.0,13.0,22,0.00,,---,0.00,VWS V14.01,2013-07-24 08:20:00,
2013-07-24 01:25:00,72.5,31.5,29.86,NNW,329,6.0,13.0,22,0.00,,---,0.00,VWS V14.01,2013-07-24 08:25:00,
2013-07-24 01:30:00,72.4,31.4,29.85,NNW,335,6.0,7.0,22,0.00,,---,0.00,VWS V14.01,2013-07-24 08:30:00,
2013-07-24 01:35:00,71.8,32.0,29.85,NNW,327,7.0,11.0,23,0.00,,---,0.00,VWS V14.01,2013-07-24 08:35:00,
2013-07-24 01:40:00,70.7,35.1,29.85,WNW,290,3.0,11.0,27,0.00,,---,0.00,VWS V14.01,2013-07-24 08:40:00,
2013-07-24 01:45:00,69.4,31.1,29.86,WNW,298,6.0,6.0,24,0.00,,---,0.00,VWS V14.01,2013-07-24 08:45:00,
2013-07-24 01:50:00,69.6,32.2,29.86,NW,313,5.0,8.0,25,0.00,,---,0.00,VWS V14.01,2013-07-24 08:50:00,
2013-07-24 01:55:00,69.8,34.3,29.86,WNW,303,3.0,8.0,27,0.00,,---,0.00,VWS V14.01,2013-07-24 08:55:00,
2013-07-24 02:00:00,69.2,38.9,29.86,WNW,288,0.0,0.0,33,0.00,,---,0.00,VWS V14.01,2013-07-24 09:00:00,
2013-07-24 02:05:00,68.3,39.6,29.86,WNW,288,0.0,0.0,35,0.00,,---,0.00,VWS V14.01,2013-07-24 09:05:00,
2013-07-24 02:10:00,67.3,39.5,29.86,WNW,288,0.0,0.0,36,0.00,,---,0.00,VWS V14.01,2013-07-24 09:10:00,
2013-07-24 02:15:00,66.5,40.1,29.85,WNW,288,0.0,0.0,38,0.00,,---,0.00,VWS V14.01,2013-07-24 09:15:00,
2013-07-24 02:20:00,65.6,41.3,29.85,WNW,288,0.0,0.0,41,0.00,,---,0.00,VWS V14.01,2013-07-24 09:20:00,
2013-07-24 02:25:00,64.3,38.2,29.85,WNW,288,0.0,0.0,38,0.00,,---,0.00,VWS V14.01,2013-07-24 09:25:00,
2013-07-24 02:30:00,64.1,39.9,29.85,WNW,288,0.0,0.0,41,0.00,,---,0.00,VWS V14.01,2013-07-24 09:30:00,
2013-07-24 02:35:00,63.6,38.9,29.85,WNW,288,0.0,0.0,40,0.00,,---,0.00,VWS V14.01,2013-07-24 09:35:00,
2013-07-24 02:40:00,63.8,39.0,29.85,WNW,288,0.0,0.0,40,0.00,,---,0.00,VWS V14.01,2013-07-24 09:40:00,
2013-07-24 02:45:00,64.1,38.7,29.85,WNW,288,0.0,0.0,39,0.00,,---,0.00,VWS V14.01,2013-07-24 09:45:00,
2013-07-24 02:50:00,65.0,35.2,29.85,NW,317,0.0,3.0,33,0.00,,---,0.00,VWS V14.01,2013-07-24 09:50:00,
2013-07-24 02:55:00,66.8,29.9,29.85,NW,317,4.0,6.0,25,0.00,,---,0.00,VWS V14.01,2013-07-24 09:55:00,
2013-07-24 03:00:00,68.5,31.3,29.85,NW,319,4.0,5.0,25,0.00,,---,0.00,VWS V14.01,2013-07-24 10:00:00,
2013-07-24 03:05:00,68.8,30.6,29.85,NW,319,4.0,5.0,24,0.00,,---,0.00,VWS V14.01,2013-07-24 10:05:00,
2013-07-24 03:10:00,68.9,35.4,29.85,NW,325,0.0,5.0,29,0.00,,---,0.00,VWS V14.01,2013-07-24 10:10:00,
2013-07-24 03:15:00,67.4,35.7,29.85,NW,325,0.0,0.0,31,0.00,,---,0.00,VWS V14.01,2013-07-24 10:15:00,
2013-07-24 03:20:00,65.6,34.2,29.85,NW,326,0.0,0.0,31,0.00,,---,0.00,VWS V14.01,2013-07-24 10:20:00,
2013-07-24 03:25:00,64.3,36.1,29.85,NW,326,0.0,0.0,35,0.00,,---,0.00,VWS V14.01,2013-07-24 10:25:00,
2013-07-24 03:30:00,62.7,39.3,29.85,NW,326,0.0,0.0,42,0.00,,---,0.00,VWS V14.01,2013-07-24 10:30:00,
2013-07-24 03:35:00,60.5,36.7,29.85,North,11,0.0,1.0,41,0.00,,---,0.00,VWS V14.01,2013-07-24 10:35:00,
2013-07-24 03:40:00,59.0,36.0,29.85,North,11,0.0,1.0,42,0.00,,---,0.00,VWS V14.01,2013-07-24 10:40:00,
2013-07-24 03:45:00,59.0,34.7,29.85,NNE,15,0.0,0.0,40,0.00,,---,0.00,VWS V14.01,2013-07-24 10:45:00,
2013-07-24 03:50:00,59.7,34.7,29.85,NE,38,0.0,3.0,39,0.00,,---,0.00,VWS V14.01,2013-07-24 10:50:00,
2013-07-24 03:55:00,60.4,34.0,29.85,NNE,31,6.0,7.0,37,0.00,,---,0.00,VWS V14.01,2013-07-24 10:55:00,
2013-07-24 04:00:00,60.3,40.0,29.86,NNE,22,0.0,0.0,47,0.00,,---,0.00,VWS V14.01,2013-07-24 11:00:00,
2013-07-24 04:05:00,59.0,40.4,29.86,NNE,23,0.0,0.0,50,0.00,,---,0.00,VWS V14.01,2013-07-24 11:05:00,
2013-07-24 04:10:00,57.7,42.1,29.85,NNE,22,0.0,0.0,56,0.00,,---,0.00,VWS V14.01,2013-07-24 11:10:00,
2013-07-24 04:15:00,56.9,40.9,29.86,NNE,22,0.0,0.0,55,0.00,,---,0.00,VWS V14.01,2013-07-24 11:15:00,
2013-07-24 04:20:00,56.7,40.7,29.85,NNE,23,0.0,0.0,55,0.00,,---,0.00,VWS V14.01,2013-07-24 11:20:00,
2013-07-24 04:25:00,56.8,39.9,29.85,NNE,22,0.0,0.0,53,0.00,,---,0.00,VWS V14.01,2013-07-24 11:25:00,
2013-07-24 04:30:00,57.1,39.2,29.85,NNE,22,0.0,0.0,51,0.00,,---,0.00,VWS V14.01,2013-07-24 11:30:00,
2013-07-24 04:35:00,57.5,38.5,29.85,NNE,22,0.0,0.0,49,0.00,,---,0.00,VWS V14.01,2013-07-24 11:35:00,
2013-07-24 04:40:00,58.2,38.1,29.85,NNE,22,0.0,0.0,47,0.00,,---,0.00,VWS V14.01,2013-07-24 11:40:00,
2013-07-24 04:45:00,58.4,39.3,29.85,NNE,23,0.0,0.0,49,0.00,,---,0.00,VWS V14.01,2013-07-24 11:45:00,
2013-07-24 04:50:00,59.0,38.3,29.85,NNE,23,0.0,0.0,46,0.00,,---,0.00,VWS V14.01,2013-07-24 11:50:00,
2013-07-24 04:55:00,59.4,40.8,29.85,NNE,23,0.0,0.0,50,0.00,,---,0.00,VWS V14.01,2013-07-24 11:55:00,
2013-07-24 05:00:00,58.2,42.1,29.85,NNE,19,0.0,0.0,55,0.00,,---,0.00,VWS V14.01,2013-07-24 12:00:00,
2013-07-24 05:05:00,57.0,40.5,29.85,NNE,19,0.0,0.0,54,0.00,,---,0.00,VWS V14.01,2013-07-24 12:05:00,
2013-07-24 05:10:00,56.6,39.2,29.85,NNE,20,0.0,0.0,52,0.00,,---,0.00,VWS V14.01,2013-07-24 12:10:00,
2013-07-24 05:15:00,56.6,41.6,29.85,NNE,17,0.0,3.0,57,0.00,,---,0.00,VWS V14.01,2013-07-24 12:15:00,
2013-07-24 05:20:00,56.4,41.8,29.85,NNE,17,0.0,3.0,58,0.00,,---,0.00,VWS V14.01,2013-07-24 12:20:00,
2013-07-24 05:25:00,56.1,44.1,29.85,NNE,17,0.0,3.0,64,0.00,,---,0.00,VWS V14.01,2013-07-24 12:25:00,
2013-07-24 05:30:00,55.4,43.8,29.85,NNE,17,0.0,0.0,65,0.00,,---,0.00,VWS V14.01,2013-07-24 12:30:00,
2013-07-24 05:34:00,55.3,41.2,29.85,NNE,17,0.0,0.0,59,0.00,,---,0.00,VWS V14.01,2013-07-24 12:34:00,
2013-07-24 05:39:00,55.8,39.9,29.85,NNE,18,0.0,0.0,55,0.00,,---,0.00,VWS V14.01,2013-07-24 12:39:00,
2013-07-24 05:44:00,56.7,38.3,29.85,NE,41,4.0,4.0,50,0.00,,---,0.00,VWS V14.01,2013-07-24 12:44:00,
2013-07-24 05:45:00,56.7,37.2,29.85,NE,36,4.0,5.0,48,0.00,,---,0.00,VWS V14.01,2013-07-24 12:45:00,
2013-07-24 05:49:00,55.9,34.9,29.86,NE,46,2.0,4.0,45,0.00,,---,0.00,VWS V14.01,2013-07-24 12:49:00,
2013-07-24 05:54:00,56.4,34.2,29.86,ENE,77,4.0,6.0,43,0.00,,---,0.00,VWS V14.01,2013-07-24 12:54:00,
2013-07-24 05:59:00,57.2,33.7,29.86,ENE,64,4.0,4.0,41,0.00,,---,0.00,VWS V14.01,2013-07-24 12:59:00,
2013-07-24 06:00:00,57.2,33.7,29.86,ENE,64,3.0,6.0,41,0.00,,---,0.00,VWS V14.01,2013-07-24 13:00:00,
2013-07-24 06:04:00,56.8,35.7,29.86,ENE,64,0.0,4.0,45,0.00,,---,0.00,VWS V14.01,2013-07-24 13:04:00,
2013-07-24 06:09:00,56.6,36.1,29.86,ENE,64,0.0,4.0,46,0.00,,---,0.00,VWS V14.01,2013-07-24 13:09:00,
2013-07-24 06:14:00,56.8,37.3,29.86,NE,54,2.0,2.0,48,0.00,,---,0.00,VWS V14.01,2013-07-24 13:14:00,
2013-07-24 06:15:00,56.8,37.3,29.86,NE,53,2.0,4.0,48,0.00,,---,0.00,VWS V14.01,2013-07-24 13:15:00,
2013-07-24 06:19:00,58.2,35.2,29.86,NE,55,2.0,4.0,42,0.00,,---,0.00,VWS V14.01,2013-07-24 13:19:00,
2013-07-24 06:24:00,59.3,36.8,29.87,NE,55,0.0,4.0,43,0.00,,---,0.00,VWS V14.01,2013-07-24 13:24:00,
2013-07-24 06:29:00,57.5,40.0,29.87,SW,214,0.0,6.0,52,0.00,,---,0.00,VWS V14.01,2013-07-24 13:29:00,
2013-07-24 06:30:00,57.5,40.0,29.87,SW,214,0.0,6.0,52,0.00,,---,0.00,VWS V14.01,2013-07-24 13:30:00,
2013-07-24 06:34:00,56.6,41.6,29.86,SW,214,0.0,0.0,57,0.00,,---,0.00,VWS V14.01,2013-07-24 13:34:00,
2013-07-24 06:39:00,56.0,42.3,29.87,SW,214,0.0,0.0,60,0.00,,---,0.00,VWS V14.01,2013-07-24 13:39:00,
2013-07-24 06:44:00,55.2,42.4,29.87,SW,214,0.0,0.0,62,0.00,,---,0.00,VWS V14.01,2013-07-24 13:44:00,
2013-07-24 06:45:00,55.2,42.4,29.87,SW,214,0.0,0.0,62,0.00,,---,0.00,VWS V14.01,2013-07-24 13:45:00,
2013-07-24 06:49:00,55.1,41.5,29.87,SW,214,0.0,0.0,60,0.00,,---,0.00,VWS V14.01,2013-07-24 13:49:00,
2013-07-24 06:54:00,55.3,42.5,29.88,SW,214,0.0,0.0,62,0.00,,---,0.00,VWS V14.01,2013-07-24 13:54:00,
2013-07-24 06:59:00,55.5,42.7,29.88,SW,214,0.0,0.0,62,0.00,,---,0.00,VWS V14.01,2013-07-24 13:59:00,
2013-07-24 07:00:00,55.5,42.7,29.88,SW,214,0.0,0.0,62,0.00,,---,0.00,VWS V14.01,2013-07-24 14:00:00,
2013-07-24 07:04:00,55.7,42.0,29.88,SW,214,0.0,0.0,60,0.00,,---,0.00,VWS V14.01,2013-07-24 14:04:00,
2013-07-24 07:09:00,55.9,41.8,29.88,SW,214,0.0,0.0,59,0.00,,---,0.00,VWS V14.01,2013-07-24 14:09:00,
2013-07-24 07:14:00,56.1,43.3,29.88,SW,214,0.0,0.0,62,0.00,,---,0.00,VWS V14.01,2013-07-24 14:14:00,
2013-07-24 07:15:00,56.1,43.3,29.88,SW,214,0.0,0.0,62,0.00,,---,0.00,VWS V14.01,2013-07-24 14:15:00,
2013-07-24 07:19:00,56.4,43.6,29.88,SW,214,0.0,0.0,62,0.00,,---,0.00,VWS V14.01,2013-07-24 14:19:00,
2013-07-24 07:24:00,56.7,44.3,29.88,SW,214,0.0,0.0,63,0.00,,---,0.00,VWS V14.01,2013-07-24 14:24:00,
2013-07-24 07:29:00,57.1,43.4,29.88,SW,214,0.0,0.0,60,0.00,,---,0.00,VWS V14.01,2013-07-24 14:29:00,
2013-07-24 07:30:00,57.1,43.4,29.88,SW,214,0.0,0.0,60,0.00,,---,0.00,VWS V14.01,2013-07-24 14:30:00,
2013-07-24 07:34:00,57.5,44.2,29.87,SW,214,0.0,0.0,61,0.00,,---,0.00,VWS V14.01,2013-07-24 14:34:00,
2013-07-24 07:39:00,58.0,40.5,29.87,SW,214,0.0,0.0,52,0.00,,---,0.00,VWS V14.01,2013-07-24 14:39:00,
2013-07-24 07:44:00,59.0,41.9,29.87,SW,214,0.0,0.0,53,0.00,,---,0.00,VWS V14.01,2013-07-24 14:44:00,
2013-07-24 07:45:00,59.0,41.9,29.87,SW,214,0.0,0.0,53,0.00,,---,0.00,VWS V14.01,2013-07-24 14:45:00,
2013-07-24 07:49:00,59.6,43.0,29.86,SW,214,0.0,0.0,54,0.00,,---,0.00,VWS V14.01,2013-07-24 14:49:00,
2013-07-24 07:54:00,60.6,40.8,29.87,SW,214,0.0,0.0,48,0.00,,---,0.00,VWS V14.01,2013-07-24 14:54:00,
2013-07-24 07:59:00,61.6,41.2,29.86,SW,214,0.0,0.0,47,0.00,,---,0.00,VWS V14.01,2013-07-24 14:59:00,
2013-07-24 08:00:00,61.6,40.6,29.86,SW,214,0.0,0.0,46,0.00,,---,0.00,VWS V14.01,2013-07-24 15:00:00,
2013-07-24 08:04:00,63.0,41.3,29.86,ENE,65,4.0,6.0,45,0.00,,---,0.00,VWS V14.01,2013-07-24 15:04:00,
2013-07-24 08:09:00,63.5,37.5,29.86,ENE,78,3.0,6.0,38,0.00,,---,0.00,VWS V14.01,2013-07-24 15:09:00,
2013-07-24 08:14:00,64.6,36.3,29.86,East,79,7.0,7.0,35,0.00,,---,0.00,VWS V14.01,2013-07-24 15:14:00,
2013-07-24 08:15:00,64.6,36.3,29.86,ENE,78,6.0,7.0,35,0.00,,---,0.00,VWS V14.01,2013-07-24 15:15:00,
2013-07-24 08:19:00,65.4,37.8,29.86,East,80,5.0,8.0,36,0.00,,---,0.00,VWS V14.01,2013-07-24 15:19:00,
2013-07-24 08:24:00,65.6,40.7,29.87,ESE,112,6.0,8.0,40,0.00,,---,0.00,VWS V14.01,2013-07-24 15:24:00,
2013-07-24 08:29:00,66.1,41.7,29.87,East,96,4.0,8.0,41,0.00,,---,0.00,VWS V14.01,2013-07-24 15:29:00,
2013-07-24 08:30:00,66.1,40.5,29.87,East,96,4.0,8.0,39,0.00,,---,0.00,VWS V14.01,2013-07-24 15:30:00,
2013-07-24 08:34:00,66.8,41.7,29.87,East,94,5.0,7.0,40,0.00,,---,0.00,VWS V14.01,2013-07-24 15:34:00,
2013-07-24 08:39:00,66.8,42.4,29.86,East,98,1.0,7.0,41,0.00,,---,0.00,VWS V14.01,2013-07-24 15:39:00,
2013-07-24 08:44:00,67.0,41.9,29.86,East,98,0.0,7.0,40,0.00,,---,0.00,VWS V14.01,2013-07-24 15:44:00,
2013-07-24 08:45:00,67.1,42.0,29.86,East,98,0.0,7.0,40,0.00,,---,0.00,VWS V14.01,2013-07-24 15:45:00,
2013-07-24 08:49:00,67.4,39.5,29.87,East,98,0.0,0.0,36,0.00,,---,0.00,VWS V14.01,2013-07-24 15:49:00,
2013-07-24 08:54:00,68.0,43.5,29.87,East,98,0.0,0.0,41,0.00,,---,0.00,VWS V14.01,2013-07-24 15:54:00,
2013-07-24 08:59:00,67.9,42.1,29.87,East,98,0.0,0.0,39,0.00,,---,0.00,VWS V14.01,2013-07-24 15:59:00,
2013-07-24 09:00:00,67.9,42.7,29.87,East,98,0.0,0.0,40,0.00,,---,0.00,VWS V14.01,2013-07-24 16:00:00,
2013-07-24 09:04:00,67.6,42.4,29.86,East,98,0.0,0.0,40,0.00,,---,0.00,VWS V14.01,2013-07-24 16:04:00,
2013-07-24 09:09:00,67.4,44.2,29.86,East,98,0.0,0.0,43,0.00,,---,0.00,VWS V14.01,2013-07-24 16:09:00,
2013-07-24 09:14:00,67.3,45.2,29.86,East,98,0.0,0.0,45,0.00,,---,0.00,VWS V14.01,2013-07-24 16:14:00,
2013-07-24 09:15:00,67.3,45.2,29.86,East,98,0.0,0.0,45,0.00,,---,0.00,VWS V14.01,2013-07-24 16:15:00,
2013-07-24 09:19:00,67.5,43.6,29.86,East,98,0.0,0.0,42,0.00,,---,0.00,VWS V14.01,2013-07-24 16:19:00,
2013-07-24 09:24:00,68.0,43.5,29.86,East,98,0.0,0.0,41,0.00,,---,0.00,VWS V14.01,2013-07-24 16:24:00,
2013-07-24 09:29:00,68.4,45.0,29.86,East,98,0.0,0.0,43,0.00,,---,0.00,VWS V14.01,2013-07-24 16:29:00,
2013-07-24 09:30:00,68.4,48.5,29.86,East,98,0.0,0.0,49,0.00,,---,0.00,VWS V14.01,2013-07-24 16:30:00,
2013-07-24 09:34:00,68.8,45.4,29.86,East,98,0.0,0.0,43,0.00,,---,0.00,VWS V14.01,2013-07-24 16:34:00,
2013-07-24 09:39:00,69.5,43.5,29.86,East,98,0.0,0.0,39,0.00,,---,0.00,VWS V14.01,2013-07-24 16:39:00,
2013-07-24 09:44:00,70.1,38.9,29.85,East,98,0.0,0.0,32,0.00,,---,0.00,VWS V14.01,2013-07-24 16:44:00,
2013-07-24 09:45:00,70.1,38.9,29.85,East,98,0.0,0.0,32,0.00,,---,0.00,VWS V14.01,2013-07-24 16:45:00,
2013-07-24 09:49:00,70.6,43.8,29.85,East,98,0.0,0.0,38,0.00,,---,0.00,VWS V14.01,2013-07-24 16:49:00,
2013-07-24 09:54:00,71.4,43.8,29.85,East,98,0.0,0.0,37,0.00,,---,0.00,VWS V14.01,2013-07-24 16:54:00,
2013-07-24 09:59:00,72.3,43.1,29.85,East,98,0.0,0.0,35,0.00,,---,0.00,VWS V14.01,2013-07-24 16:59:00,
2013-07-24 10:00:00,72.4,46.7,29.85,East,98,0.0,0.0,40,0.00,,---,0.00,VWS V14.01,2013-07-24 17:00:00,
2013-07-24 10:04:00,73.0,42.2,29.84,East,98,0.0,0.0,33,0.00,,---,0.00,VWS V14.01,2013-07-24 17:04:00,
2013-07-24 10:09:00,74.2,44.8,29.84,East,98,0.0,0.0,35,0.00,,---,0.00,VWS V14.01,2013-07-24 17:09:00,
2013-07-24 10:14:00,75.4,45.1,29.84,East,98,0.0,0.0,34,0.00,,---,0.00,VWS V14.01,2013-07-24 17:14:00,
2013-07-24 10:15:00,75.6,46.0,29.84,East,98,0.0,0.0,35,0.00,,---,0.00,VWS V14.01,2013-07-24 17:15:00,
2013-07-24 10:19:00,76.2,45.8,29.84,East,98,0.0,0.0,34,0.00,,---,0.00,VWS V14.01,2013-07-24 17:19:00,
2013-07-24 10:24:00,76.7,43.8,29.84,East,98,0.0,0.0,31,0.00,,---,0.00,VWS V14.01,2013-07-24 17:24:00,
2013-07-24 10:29:00,77.5,40.9,29.84,East,98,0.0,0.0,27,0.00,,---,0.00,VWS V14.01,2013-07-24 17:29:00,
2013-07-24 10:30:00,77.6,44.6,29.84,East,98,0.0,0.0,31,0.00,,---,0.00,VWS V14.01,2013-07-24 17:30:00,
2013-07-24 10:34:00,78.4,43.5,29.84,East,98,0.0,0.0,29,0.00,,---,0.00,VWS V14.01,2013-07-24 17:34:00,
2013-07-24 10:39:00,78.7,41.0,29.84,East,98,0.0,2.0,26,0.00,,---,0.00,VWS V14.01,2013-07-24 17:39:00,
2013-07-24 10:44:00,79.4,42.5,29.84,East,98,1.0,2.0,27,0.00,,---,0.00,VWS V14.01,2013-07-24 17:44:00,
2013-07-24 10:45:00,79.5,39.6,29.84,East,98,2.0,5.0,24,0.00,,---,0.00,VWS V14.01,2013-07-24 17:45:00,
2013-07-24 10:49:00,79.9,41.0,29.84,SE,126,0.0,5.0,25,0.00,,---,0.00,VWS V14.01,2013-07-24 17:49:00,
2013-07-24 10:54:00,80.8,40.7,29.83,SE,132,5.0,5.0,24,0.00,,---,0.00,VWS V14.01,2013-07-24 17:54:00,
2013-07-24 10:59:00,81.1,39.8,29.83,SE,133,0.0,6.0,23,0.00,,---,0.00,VWS V14.01,2013-07-24 17:59:00,
2013-07-24 11:00:00,81.1,40.9,29.83,SE,134,0.0,6.0,24,0.00,,---,0.00,VWS V14.01,2013-07-24 18:00:00,
2013-07-24 11:04:00,81.6,39.1,29.83,SSE,153,0.0,2.0,22,0.00,,---,0.00,VWS V14.01,2013-07-24 18:04:00,
2013-07-24 11:09:00,82.4,39.8,29.83,SSE,153,0.0,2.0,22,0.00,,---,0.00,VWS V14.01,2013-07-24 18:09:00,
2013-07-24 11:13:00,82.5,37.4,29.83,SSW,194,0.0,5.0,20,0.00,,---,0.00,VWS V14.01,2013-07-24 18:13:00,
2013-07-24 11:15:00,82.5,39.9,29.83,SSW,194,0.0,5.0,22,0.00,,---,0.00,VWS V14.01,2013-07-24 18:15:00,
2013-07-24 11:18:00,82.7,41.2,29.82,SSW,194,0.0,0.0,23,0.00,,---,0.00,VWS V14.01,2013-07-24 18:18:00,
2013-07-24 11:23:00,82.6,38.8,29.82,SSW,194,0.0,1.0,21,0.00,,---,0.00,VWS V14.01,2013-07-24 18:23:00,
2013-07-24 11:28:00,82.4,42.0,29.82,SSW,194,0.0,2.0,24,0.00,,---,0.00,VWS V14.01,2013-07-24 18:28:00,
2013-07-24 11:30:00,82.4,42.0,29.82,SSW,194,0.0,2.0,24,0.00,,---,0.00,VWS V14.01,2013-07-24 18:30:00,
2013-07-24 11:33:00,82.7,40.0,29.82,SSE,158,0.0,5.0,22,0.00,,---,0.00,VWS V14.01,2013-07-24 18:33:00,
2013-07-24 11:38:00,83.4,38.2,29.83,SSE,158,0.0,5.0,20,0.00,,---,0.00,VWS V14.01,2013-07-24 18:38:00,
2013-07-24 11:43:00,83.9,42.2,29.82,SSE,158,0.0,5.0,23,0.00,,---,0.00,VWS V14.01,2013-07-24 18:43:00,
2013-07-24 11:45:00,84.1,44.5,29.82,SSE,158,0.0,5.0,25,0.00,,---,0.00,VWS V14.01,2013-07-24 18:45:00,
2013-07-24 11:48:00,84.6,37.8,29.82,SE,146,0.0,7.0,19,0.00,,---,0.00,VWS V14.01,2013-07-24 18:48:00,
2013-07-24 11:53:00,84.7,37.9,29.82,South,171,0.0,7.0,19,0.00,,---,0.00,VWS V14.01,2013-07-24 18:53:00,
2013-07-24 11:58:00,84.1,34.6,29.82,South,171,0.0,7.0,17,0.00,,---,0.00,VWS V14.01,2013-07-24 18:58:00,
2013-07-24 12:00:00,84.0,36.0,29.82,South,171,0.0,7.0,18,0.00,,---,0.00,VWS V14.01,2013-07-24 19:00:00,
2013-07-24 12:03:00,84.0,38.7,29.82,South,171,2.0,6.0,20,0.00,,---,0.00,VWS V14.01,2013-07-24 19:03:00,
2013-07-24 12:08:00,84.0,36.0,29.82,SSE,159,1.0,7.0,18,0.00,,---,0.00,VWS V14.01,2013-07-24 19:08:00,
2013-07-24 12:13:00,84.2,37.5,29.82,SSE,158,4.0,7.0,19,0.00,,---,0.00,VWS V14.01,2013-07-24 19:13:00,
2013-07-24 12:15:00,84.2,37.5,29.82,SSE,159,0.0,7.0,19,0.00,,---,0.00,VWS V14.01,2013-07-24 19:15:00,
2013-07-24 12:18:00,84.1,38.7,29.82,SSE,157,0.0,2.0,20,0.00,,---,0.00,VWS V14.01,2013-07-24 19:18:00,
2013-07-24 12:23:00,84.1,42.3,29.82,ESE,114,0.0,2.0,23,0.00,,---,0.00,VWS V14.01,2013-07-24 19:23:00,
2013-07-24 12:28:00,84.0,44.4,29.82,ESE,114,0.0,2.0,25,0.00,,---,0.00,VWS V14.01,2013-07-24 19:28:00,
2013-07-24 12:30:00,84.0,41.1,29.82,ESE,115,0.0,2.0,22,0.00,,---,0.00,VWS V14.01,2013-07-24 19:30:00,
2013-07-24 12:33:00,84.0,37.3,29.82,ESE,122,0.0,5.0,19,0.00,,---,0.00,VWS V14.01,2013-07-24 19:33:00,
2013-07-24 12:38:00,84.3,40.2,29.82,ESE,122,0.0,5.0,21,0.00,,---,0.00,VWS V14.01,2013-07-24 19:38:00,
2013-07-24 12:43:00,84.6,41.6,29.81,ESE,122,0.0,5.0,22,0.00,,---,0.00,VWS V14.01,2013-07-24 19:43:00,
2013-07-24 12:45:00,84.8,38.0,29.81,ESE,122,0.0,5.0,19,0.00,,---,0.00,VWS V14.01,2013-07-24 19:45:00,
2013-07-24 12:48:00,85.6,37.3,29.81,ESE,122,0.0,1.0,18,0.00,,---,0.00,VWS V14.01,2013-07-24 19:48:00,
2013-07-24 12:53:00,85.8,37.4,29.81,SE,142,0.0,7.0,18,0.00,,---,0.00,VWS V14.01,2013-07-24 19:53:00,
2013-07-24 12:58:00,86.2,39.2,29.81,SE,143,0.0,7.0,19,0.00,,---,0.00,VWS V14.01,2013-07-24 19:58:00,
2013-07-24 13:00:00,86.4,40.6,29.81,SE,143,0.0,7.0,20,0.00,,---,0.00,VWS V14.01,2013-07-24 20:00:00,
2013-07-24 13:03:00,86.5,36.6,29.81,SE,142,0.0,2.0,17,0.00,,---,0.00,VWS V14.01,2013-07-24 20:03:00,
2013-07-24 13:08:00,86.6,36.6,29.80,SE,142,0.0,2.0,17,0.00,,---,0.00,VWS V14.01,2013-07-24 20:08:00,
2013-07-24 13:13:00,87.0,38.4,29.80,SE,142,0.0,2.0,18,0.00,,---,0.00,VWS V14.01,2013-07-24 20:13:00,
2013-07-24 13:15:00,87.0,38.4,29.80,SE,142,0.0,2.0,18,0.00,,---,0.00,VWS V14.01,2013-07-24 20:15:00,
2013-07-24 13:18:00,87.0,37.0,29.80,SE,142,0.0,0.0,17,0.00,,---,0.00,VWS V14.01,2013-07-24 20:18:00,
2013-07-24 13:23:00,86.8,35.3,29.80,SE,142,0.0,2.0,16,0.00,,---,0.00,VWS V14.01,2013-07-24 20:23:00,
2013-07-24 13:28:00,86.9,35.3,29.80,SE,143,0.0,2.0,16,0.00,,---,0.00,VWS V14.01,2013-07-24 20:28:00,
2013-07-24 13:30:00,87.0,35.4,29.80,SE,142,0.0,2.0,16,0.00,,---,0.00,VWS V14.01,2013-07-24 20:30:00,
2013-07-24 13:33:00,87.4,40.1,29.79,SE,142,0.0,0.0,19,0.00,,---,0.00,VWS V14.01,2013-07-24 20:33:00,
2013-07-24 13:38:00,87.6,37.5,29.79,SE,142,0.0,5.0,17,0.00,,---,0.00,VWS V14.01,2013-07-24 20:38:00,
2013-07-24 13:43:00,87.5,38.8,29.79,SE,142,0.0,5.0,18,0.00,,---,0.00,VWS V14.01,2013-07-24 20:43:00,
2013-07-24 13:45:00,87.5,38.8,29.79,SE,142,0.0,5.0,18,0.00,,---,0.00,VWS V14.01,2013-07-24 20:45:00,
2013-07-24 13:48:00,87.1,37.0,29.80,SE,142,0.0,0.0,17,0.00,,---,0.00,VWS V14.01,2013-07-24 20:48:00,
2013-07-24 13:53:00,86.7,35.2,29.80,SE,143,0.0,1.0,16,0.00,,---,0.00,VWS V14.01,2013-07-24 20:53:00,
2013-07-24 13:58:00,86.6,43.3,29.80,SE,142,0.0,1.0,22,0.00,,---,0.00,VWS V14.01,2013-07-24 20:58:00,
2013-07-24 14:00:00,86.5,42.0,29.80,SE,144,0.0,2.0,21,0.00,,---,0.00,VWS V14.01,2013-07-24 21:00:00,
2013-07-24 14:03:00,86.4,43.1,29.79,SE,144,0.0,2.0,22,0.00,,---,0.00,VWS V14.01,2013-07-24 21:03:00,
2013-07-24 14:08:00,86.4,41.9,29.79,SE,144,0.0,2.0,21,0.00,,---,0.00,VWS V14.01,2013-07-24 21:08:00,
2013-07-24 14:13:00,86.5,39.4,29.79,SE,144,0.0,2.0,19,0.00,,---,0.00,VWS V14.01,2013-07-24 21:13:00,
2013-07-24 14:15:00,86.6,39.5,29.79,SE,144,0.0,2.0,19,0.00,,---,0.00,VWS V14.01,2013-07-24 21:15:00,
2013-07-24 14:18:00,87.2,38.6,29.79,SE,144,0.0,0.0,18,0.00,,---,0.00,VWS V14.01,2013-07-24 21:18:00,
2013-07-24 14:23:00,87.8,45.4,29.79,South,190,3.0,3.0,23,0.00,,---,0.00,VWS V14.01,2013-07-24 21:23:00,
2013-07-24 14:28:00,86.7,47.8,29.79,WSW,242,7.0,8.0,26,0.00,,---,0.00,VWS V14.01,2013-07-24 21:28:00,
2013-07-24 14:30:00,86.3,46.4,29.79,WSW,242,4.0,8.0,25,0.00,,---,0.00,VWS V14.01,2013-07-24 21:30:00,
2013-07-24 14:33:00,85.2,48.5,29.79,WSW,242,4.0,5.0,28,0.00,,---,0.00,VWS V14.01,2013-07-24 21:33:00,
2013-07-24 14:38:00,84.2,47.6,29.79,WSW,241,5.0,6.0,28,0.00,,---,0.00,VWS V14.01,2013-07-24 21:38:00,
2013-07-24 14:43:00,83.4,50.5,29.79,WSW,242,4.0,6.0,32,0.00,,---,0.00,VWS V14.01,2013-07-24 21:43:00,
2013-07-24 14:45:00,83.4,52.1,29.79,WSW,241,1.0,6.0,34,0.00,,---,0.00,VWS V14.01,2013-07-24 21:45:00,
2013-07-24 14:48:00,83.0,47.5,29.79,WSW,242,3.0,5.0,29,0.00,,---,0.00,VWS V14.01,2013-07-24 21:48:00,
2013-07-24 14:53:00,83.9,47.3,29.79,WSW,240,0.0,5.0,28,0.00,,---,0.00,VWS V14.01,2013-07-24 21:53:00,
2013-07-24 14:58:00,85.3,51.3,29.78,WSW,245,4.0,5.0,31,0.00,,---,0.00,VWS V14.01,2013-07-24 21:58:00,
2013-07-24 15:00:00,85.5,45.7,29.78,WSW,245,6.0,7.0,25,0.00,,---,0.00,VWS V14.01,2013-07-24 22:00:00,
2013-07-24 15:03:00,85.5,43.5,29.78,WSW,245,6.0,7.0,23,0.00,,---,0.00,VWS V14.01,2013-07-24 22:03:00,
2013-07-24 15:08:00,84.7,48.0,29.78,WSW,245,3.0,7.0,28,0.00,,---,0.00,VWS V14.01,2013-07-24 22:08:00,
2013-07-24 15:13:00,84.2,46.6,29.78,WSW,244,0.0,7.0,27,0.00,,---,0.00,VWS V14.01,2013-07-24 22:13:00,
2013-07-24 15:15:00,84.2,47.6,29.78,WSW,244,2.0,7.0,28,0.00,,---,0.00,VWS V14.01,2013-07-24 22:15:00,
2013-07-24 15:18:00,84.2,46.6,29.78,WSW,244,1.0,3.0,27,0.00,,---,0.00,VWS V14.01,2013-07-24 22:18:00,
2013-07-24 15:23:00,84.6,47.9,29.77,WSW,244,0.0,3.0,28,0.00,,---,0.00,VWS V14.01,2013-07-24 22:23:00,
2013-07-24 15:28:00,84.3,47.7,29.78,SW,232,2.0,4.0,28,0.00,,---,0.00,VWS V14.01,2013-07-24 22:28:00,
2013-07-24 15:30:00,84.3,47.7,29.78,SW,232,0.0,4.0,28,0.00,,---,0.00,VWS V14.01,2013-07-24 22:30:00,
2013-07-24 15:33:00,84.7,49.9,29.78,SW,232,0.0,0.0,30,0.00,,---,0.00,VWS V14.01,2013-07-24 22:33:00,
2013-07-24 15:38:00,85.6,44.7,29.78,SW,215,1.0,2.0,24,0.00,,---,0.00,VWS V14.01,2013-07-24 22:38:00,
2013-07-24 15:43:00,86.1,45.1,29.78,SE,140,2.0,8.0,24,0.00,,---,0.00,VWS V14.01,2013-07-24 22:43:00,
2013-07-24 15:45:00,86.0,48.2,29.78,SE,140,1.0,8.0,27,0.00,,---,0.00,VWS V14.01,2013-07-24 22:45:00,
2013-07-24 15:48:00,86.3,41.8,29.78,SE,140,0.0,5.0,21,0.00,,---,0.00,VWS V14.01,2013-07-24 22:48:00,
2013-07-24 15:53:00,87.2,40.0,29.78,SSE,149,4.0,6.0,19,0.00,,---,0.00,VWS V14.01,2013-07-24 22:53:00,
2013-07-24 15:58:00,87.6,45.3,29.78,SSE,158,6.0,8.0,23,0.00,,---,0.00,VWS V14.01,2013-07-24 22:58:00,
2013-07-24 16:00:00,87.6,41.6,29.78,SSE,158,2.0,8.0,20,0.00,,---,0.00,VWS V14.01,2013-07-24 23:00:00,
2013-07-24 16:03:00,87.9,46.6,29.78,SSE,158,0.0,4.0,24,0.00,,---,0.00,VWS V14.01,2013-07-24 23:03:00,
2013-07-24 16:08:00,88.8,39.9,29.78,SSE,158,0.0,4.0,18,0.00,,---,0.00,VWS V14.01,2013-07-24 23:08:00,
2013-07-24 16:13:00,89.5,41.8,29.78,SSE,157,0.0,4.0,19,0.00,,---,0.00,VWS V14.01,2013-07-24 23:13:00,
2013-07-24 16:15:00,89.7,42.0,29.78,SSE,157,0.0,4.0,19,0.00,,---,0.00,VWS V14.01,2013-07-24 23:15:00,
2013-07-24 16:18:00,90.1,42.3,29.77,SSE,157,0.0,5.0,19,0.00,,---,0.00,VWS V14.01,2013-07-24 23:18:00,
2013-07-24 16:23:00,90.3,41.1,29.77,SSE,158,0.0,5.0,18,0.00,,---,0.00,VWS V14.01,2013-07-24 23:23:00,
2013-07-24 16:28:00,90.4,43.9,29.77,SSE,158,0.0,5.0,20,0.00,,---,0.00,VWS V14.01,2013-07-24 23:28:00,
2013-07-24 16:30:00,90.5,44.0,29.77,SSE,157,0.0,5.0,20,0.00,,---,0.00,VWS V14.01,2013-07-24 23:30:00,
2013-07-24 16:33:00,90.7,44.2,29.77,SSE,157,0.0,0.0,20,0.00,,---,0.00,VWS V14.01,2013-07-24 23:33:00,
2013-07-24 16:38:00,91.3,40.4,29.77,SSE,158,0.0,0.0,17,0.00,,---,0.00,VWS V14.01,2013-07-24 23:38:00,
2013-07-24 16:43:00,92.2,37.9,29.77,SSE,158,0.0,0.0,15,0.00,,---,0.00,VWS V14.01,2013-07-24 23:43:00,
2013-07-24 16:45:00,92.6,34.6,29.77,SSE,158,0.0,0.0,13,0.00,,---,0.00,VWS V14.01,2013-07-24 23:45:00,
2013-07-24 16:48:00,92.8,34.8,29.77,SSE,158,0.0,0.0,13,0.00,,---,0.00,VWS V14.01,2013-07-24 23:48:00,
2013-07-24 16:53:00,92.4,36.3,29.77,SSE,158,0.0,0.0,14,0.00,,---,0.00,VWS V14.01,2013-07-24 23:53:00,
2013-07-24 16:58:00,91.5,33.8,29.77,SSE,158,2.0,5.0,13,0.00,,---,0.00,VWS V14.01,2013-07-24 23:58:00,
2013-07-24 17:00:00,91.2,35.4,29.77,SSE,157,2.0,5.0,14,0.00,,---,0.00,VWS V14.01,2013-07-25 00:00:00,
2013-07-24 17:03:00,90.9,36.9,29.77,SSE,157,0.0,5.0,15,0.00,,---,0.00,VWS V14.01,2013-07-25 00:03:00,
2013-07-24 17:08:00,91.0,43.1,29.77,SSE,157,0.0,5.0,19,0.00,,---,0.00,VWS V14.01,2013-07-25 00:08:00,
2013-07-24 17:13:00,91.3,48.3,29.77,SSE,158,0.0,5.0,23,0.00,,---,0.00,VWS V14.01,2013-07-25 00:13:00,
2013-07-24 17:15:00,91.5,39.0,29.77,SSE,158,0.0,5.0,16,0.00,,---,0.00,VWS V14.01,2013-07-25 00:15:00,
2013-07-24 17:18:00,91.7,39.2,29.77,SSE,158,0.0,1.0,16,0.00,,---,0.00,VWS V14.01,2013-07-25 00:18:00,
2013-07-24 17:23:00,91.5,39.0,29.77,SSE,158,0.0,1.0,16,0.00,,---,0.00,VWS V14.01,2013-07-25 00:23:00,
2013-07-24 17:28:00,91.0,49.2,29.77,SSE,157,0.0,1.0,24,0.00,,---,0.00,VWS V14.01,2013-07-25 00:28:00,
2013-07-24 17:30:00,90.5,48.8,29.77,SSE,158,0.0,1.0,24,0.00,,---,0.00,VWS V14.01,2013-07-25 00:30:00,
2013-07-24 17:33:00,89.5,46.8,29.77,SSE,161,5.0,5.0,23,0.00,,---,0.00,VWS V14.01,2013-07-25 00:33:00,
2013-07-24 17:38:00,88.2,48.0,29.77,SSW,200,3.0,5.0,25,0.00,,---,0.00,VWS V14.01,2013-07-25 00:38:00,
2013-07-24 17:43:00,87.9,41.9,29.77,SSW,201,1.0,5.0,20,0.00,,---,0.00,VWS V14.01,2013-07-25 00:43:00,
2013-07-24 17:45:00,88.0,45.6,29.77,SSW,200,3.0,5.0,23,0.00,,---,0.00,VWS V14.01,2013-07-25 00:45:00,
2013-07-24 17:47:00,87.9,46.6,29.77,SSW,200,3.0,3.0,24,0.00,,---,0.00,VWS V14.01,2013-07-25 00:47:00,
2013-07-24 17:52:00,87.6,47.5,29.76,WSW,238,3.0,7.0,25,0.00,,---,0.00,VWS V14.01,2013-07-25 00:52:00,
2013-07-24 17:57:00,87.7,46.5,29.76,WSW,239,5.0,7.0,24,0.00,,---,0.00,VWS V14.01,2013-07-25 00:57:00,
2013-07-24 18:00:00,87.7,51.5,29.76,WSW,238,4.0,7.0,29,0.00,,---,0.00,VWS V14.01,2013-07-25 01:00:00,
2013-07-24 18:02:00,87.5,49.4,29.76,WSW,239,5.0,6.0,27,0.00,,---,0.00,VWS V14.01,2013-07-25 01:02:00,
2013-07-24 18:07:00,87.2,52.0,29.76,WSW,239,3.0,6.0,30,0.00,,---,0.00,VWS V14.01,2013-07-25 01:07:00,
2013-07-24 18:12:00,87.5,49.4,29.76,WSW,238,5.0,6.0,27,0.00,,---,0.00,VWS V14.01,2013-07-25 01:12:00,
2013-07-24 18:15:00,87.8,46.5,29.76,WSW,240,6.0,8.0,24,0.00,,---,0.00,VWS V14.01,2013-07-25 01:15:00,
2013-07-24 18:17:00,88.1,47.9,29.76,WSW,242,4.0,8.0,25,0.00,,---,0.00,VWS V14.01,2013-07-25 01:17:00,
2013-07-24 18:22:00,88.2,45.8,29.76,WSW,243,3.0,8.0,23,0.00,,---,0.00,VWS V14.01,2013-07-25 01:22:00,
2013-07-24 18:27:00,88.8,50.5,29.76,WSW,243,5.0,8.0,27,0.00,,---,0.00,VWS V14.01,2013-07-25 01:27:00,
2013-07-24 18:30:00,88.7,45.0,29.76,WSW,243,5.0,8.0,22,0.00,,---,0.00,VWS V14.01,2013-07-25 01:30:00,
2013-07-24 18:32:00,88.6,49.4,29.76,WSW,242,4.0,5.0,26,0.00,,---,0.00,VWS V14.01,2013-07-25 01:32:00,
2013-07-24 18:37:00,88.4,48.1,29.76,WSW,243,4.0,7.0,25,0.00,,---,0.00,VWS V14.01,2013-07-25 01:37:00,
2013-07-24 18:42:00,88.4,47.1,29.76,WSW,243,2.0,7.0,24,0.00,,---,0.00,VWS V14.01,2013-07-25 01:42:00,
2013-07-24 18:45:00,88.4,50.2,29.76,WSW,243,0.0,7.0,27,0.00,,---,0.00,VWS V14.01,2013-07-25 01:45:00,
2013-07-24 18:47:00,88.4,39.5,29.76,WSW,243,3.0,3.0,18,0.00,,---,0.00,VWS V14.01,2013-07-25 01:47:00,
2013-07-24 18:52:00,88.2,48.0,29.76,WSW,243,3.0,5.0,25,0.00,,---,0.00,VWS V14.01,2013-07-25 01:52:00,
2013-07-24 18:57:00,87.5,47.4,29.76,WSW,242,3.0,5.0,25,0.00,,---,0.00,VWS V14.01,2013-07-25 01:57:00,
2013-07-24 19:00:00,87.4,46.2,29.76,WSW,243,2.0,5.0,24,0.00,,---,0.00,VWS V14.01,2013-07-25 02:00:00,
2013-07-24 19:02:00,87.4,47.3,29.76,WSW,244,7.0,7.0,25,0.00,,---,0.00,VWS V14.01,2013-07-25 02:02:00,
2013-07-24 19:07:00,87.3,42.6,29.77,WSW,240,8.0,10.0,21,0.00,,---,0.00,VWS V14.01,2013-07-25 02:07:00,
2013-07-24 19:12:00,87.8,44.3,29.77,WSW,252,4.0,10.0,22,0.00,,---,0.00,VWS V14.01,2013-07-25 02:12:00,
2013-07-24 19:15:00,87.8,43.0,29.77,WSW,252,5.0,10.0,21,0.00,,---,0.00,VWS V14.01,2013-07-25 02:15:00,
2013-07-24 19:17:00,87.8,44.3,29.77,WSW,252,4.0,6.0,22,0.00,,---,0.00,VWS V14.01,2013-07-25 02:17:00,
2013-07-24 19:22:00,87.8,44.3,29.77,WSW,252,1.0,7.0,22,0.00,,---,0.00,VWS V14.01,2013-07-25 02:22:00,
2013-07-24 19:27:00,87.2,46.0,29.77,WSW,252,3.0,7.0,24,0.00,,---,0.00,VWS V14.01,2013-07-25 02:27:00,
2013-07-24 19:30:00,87.0,44.8,29.77,WSW,252,5.0,7.0,23,0.00,,---,0.00,VWS V14.01,2013-07-25 02:30:00,
2013-07-24 19:32:00,86.6,45.5,29.77,WSW,244,4.0,11.0,24,0.00,,---,0.00,VWS V14.01,2013-07-25 02:32:00,
2013-07-24 19:37:00,85.9,43.8,29.77,WSW,245,5.0,11.0,23,0.00,,---,0.00,VWS V14.01,2013-07-25 02:37:00,
2013-07-24 19:42:00,85.3,41.0,29.77,WSW,245,5.0,11.0,21,0.00,,---,0.00,VWS V14.01,2013-07-25 02:42:00,
2013-07-24 19:45:00,85.4,45.6,29.77,WSW,245,8.0,11.0,25,0.00,,---,0.00,VWS V14.01,2013-07-25 02:45:00,
2013-07-24 19:47:00,84.7,44.0,29.77,West,264,6.0,9.0,24,0.00,,---,0.00,VWS V14.01,2013-07-25 02:47:00,
2013-07-24 19:52:00,83.3,46.8,29.77,West,274,7.0,9.0,28,0.00,,---,0.00,VWS V14.01,2013-07-25 02:52:00,
2013-07-24 19:57:00,82.2,48.6,29.78,WNW,287,10.0,10.0,31,0.00,,---,0.00,VWS V14.01,2013-07-25 02:57:00,
2013-07-24 20:00:00,81.9,48.3,29.78,WNW,286,6.0,10.0,31,0.00,,---,0.00,VWS V14.01,2013-07-25 03:00:00,
2013-07-24 20:02:00,81.5,48.8,29.78,WNW,284,8.0,8.0,32,0.00,,---,0.00,VWS V14.01,2013-07-25 03:02:00,
2013-07-24 20:07:00,81.4,48.7,29.78,West,271,6.0,14.0,32,0.00,,---,0.00,VWS V14.01,2013-07-25 03:07:00,
2013-07-24 20:12:00,81.5,48.8,29.78,West,261,8.0,14.0,32,0.00,,---,0.00,VWS V14.01,2013-07-25 03:12:00,
2013-07-24 20:15:00,81.4,49.6,29.78,WSW,248,5.0,14.0,33,0.00,,---,0.00,VWS V14.01,2013-07-25 03:15:00,
2013-07-24 20:17:00,80.5,50.4,29.78,WSW,247,5.0,7.0,35,0.00,,---,0.00,VWS V14.01,2013-07-25 03:17:00,
2013-07-24 20:23:00,79.7,48.9,29.78,WSW,244,6.0,8.0,34,0.00,,---,0.00,VWS V14.01,2013-07-25 03:23:00,
2013-07-24 20:28:00,79.6,49.6,29.78,WSW,244,4.0,8.0,35,0.00,,---,0.00,VWS V14.01,2013-07-25 03:28:00,
2013-07-24 20:30:00,79.2,50.0,29.78,WSW,244,4.0,8.0,36,0.00,,---,0.00,VWS V14.01,2013-07-25 03:30:00,
2013-07-24 20:33:00,78.9,49.7,29.79,WSW,252,7.0,8.0,36,0.00,,---,0.00,VWS V14.01,2013-07-25 03:33:00,
2013-07-24 20:38:00,78.6,50.9,29.79,WSW,244,4.0,9.0,38,0.00,,---,0.00,VWS V14.01,2013-07-25 03:38:00,
2013-07-24 20:43:00,78.9,49.7,29.79,WSW,238,6.0,9.0,36,0.00,,---,0.00,VWS V14.01,2013-07-25 03:43:00,
2013-07-24 20:45:00,79.2,48.4,29.79,WSW,243,8.0,11.0,34,0.00,,---,0.00,VWS V14.01,2013-07-25 03:45:00,
2013-07-24 20:48:00,79.8,48.2,29.79,West,275,10.0,13.0,33,0.00,,---,0.00,VWS V14.01,2013-07-25 03:48:00,
2013-07-24 20:53:00,79.9,49.0,29.79,West,279,9.0,14.0,34,0.00,,---,0.00,VWS V14.01,2013-07-25 03:53:00,
2013-07-24 20:58:00,79.2,50.0,29.79,West,277,9.0,14.0,36,0.00,,---,0.00,VWS V14.01,2013-07-25 03:58:00,
2013-07-24 21:00:00,79.1,49.1,29.79,West,272,7.0,14.0,35,0.00,,---,0.00,VWS V14.01,2013-07-25 04:00:00,
2013-07-24 21:01:00,79.0,49.0,29.79,West,272,7.0,7.0,35,0.00,,---,0.00,VWS V14.01,2013-07-25 04:01:00,
2013-07-24 21:06:00,78.7,49.5,29.80,West,264,6.0,10.0,36,0.00,,---,0.00,VWS V14.01,2013-07-25 04:06:00,
2013-07-24 21:11:00,78.4,49.3,29.80,West,281,9.0,13.0,36,0.00,,---,0.00,VWS V14.01,2013-07-25 04:11:00,
2013-07-24 21:15:00,78.7,48.8,29.80,WNW,283,12.0,15.0,35,0.00,,---,0.00,VWS V14.01,2013-07-25 04:15:00,
2013-07-24 21:16:00,78.8,48.9,29.80,WNW,283,8.0,13.0,35,0.00,,---,0.00,VWS V14.01,2013-07-25 04:16:00,
2013-07-24 21:21:00,79.2,49.2,29.80,West,280,9.0,15.0,35,0.00,,---,0.00,VWS V14.01,2013-07-25 04:21:00,
2013-07-24 21:26:00,78.7,48.8,29.80,WNW,286,5.0,15.0,35,0.00,,---,0.00,VWS V14.01,2013-07-25 04:26:00,
2013-07-24 21:30:00,78.5,49.3,29.80,WNW,289,4.0,15.0,36,0.00,,---,0.00,VWS V14.01,2013-07-25 04:30:00,
2013-07-24 21:31:00,78.3,49.2,29.81,WNW,295,4.0,5.0,36,0.00,,---,0.00,VWS V14.01,2013-07-25 04:31:00,
2013-07-24 21:36:00,77.5,48.5,29.81,WNW,300,3.0,6.0,36,0.00,,---,0.00,VWS V14.01,2013-07-25 04:36:00,
2013-07-24 21:41:00,77.5,48.5,29.81,NW,319,8.0,16.0,36,0.00,,---,0.00,VWS V14.01,2013-07-25 04:41:00,
2013-07-24 21:45:00,78.3,48.4,29.81,NW,325,5.0,16.0,35,0.00,,---,0.00,VWS V14.01,2013-07-25 04:45:00,
2013-07-24 21:46:00,78.5,47.8,29.81,NW,323,7.0,7.0,34,0.00,,---,0.00,VWS V14.01,2013-07-25 04:46:00,
2013-07-24 21:51:00,78.7,48.0,29.81,NW,316,9.0,9.0,34,0.00,,---,0.00,VWS V14.01,2013-07-25 04:51:00,
2013-07-24 21:56:00,79.0,48.3,29.81,WNW,297,8.0,11.0,34,0.00,,---,0.00,VWS V14.01,2013-07-25 04:56:00,
2013-07-24 22:00:00,79.1,47.6,29.82,WNW,302,5.0,11.0,33,0.00,,---,0.00,VWS V14.01,2013-07-25 05:00:00,
2013-07-24 22:01:00,79.0,48.3,29.82,WNW,302,5.0,6.0,34,0.00,,---,0.00,VWS V14.01,2013-07-25 05:01:00,
2013-07-24 22:05:00,78.4,48.5,29.82,WNW,295,5.0,7.0,35,0.00,,---,0.00,VWS V14.01,2013-07-25 05:05:00,
2013-07-24 22:10:00,77.6,47.8,29.82,WNW,303,6.0,8.0,35,0.00,,---,0.00,VWS V14.01,2013-07-25 05:10:00,
2013-07-24 22:15:00,77.3,48.3,29.81,WNW,293,8.0,11.0,36,0.00,,---,0.00,VWS V14.01,2013-07-25 05:15:00,
2013-07-24 22:20:00,76.8,47.8,29.81,WNW,298,8.0,12.0,36,0.00,,---,0.00,VWS V14.01,2013-07-25 05:20:00,
2013-07-24 22:25:00,76.3,49.5,29.82,WNW,292,6.0,12.0,39,0.00,,---,0.00,VWS V14.01,2013-07-25 05:25:00,
2013-07-24 22:30:00,75.2,48.6,29.81,WNW,292,6.0,8.0,39,0.00,,---,0.00,VWS V14.01,2013-07-25 05:30:00,
2013-07-24 22:35:00,74.7,48.1,29.82,WNW,293,5.0,8.0,39,0.00,,---,0.00,VWS V14.01,2013-07-25 05:35:00,
2013-07-24 22:40:00,74.2,49.7,29.82,West,271,3.0,8.0,42,0.00,,---,0.00,VWS V14.01,2013-07-25 05:40:00,
2013-07-24 22:45:00,73.6,50.4,29.82,West,271,0.0,0.0,44,0.00,,---,0.00,VWS V14.01,2013-07-25 05:45:00,
2013-07-24 22:50:00,72.7,48.3,29.82,West,271,0.0,0.0,42,0.00,,---,0.00,VWS V14.01,2013-07-25 05:50:00,
2013-07-24 22:55:00,72.8,47.8,29.82,West,271,0.0,0.0,41,0.00,,---,0.00,VWS V14.01,2013-07-25 05:55:00,
2013-07-24 23:00:00,73.2,47.5,29.82,West,271,0.0,0.0,40,0.00,,---,0.00,VWS V14.01,2013-07-25 06:00:00,
2013-07-24 23:05:00,73.2,47.5,29.82,West,271,0.0,4.0,40,0.00,,---,0.00,VWS V14.01,2013-07-25 06:05:00,
2013-07-24 23:10:00,72.4,48.0,29.82,West,271,0.0,4.0,42,0.00,,---,0.00,VWS V14.01,2013-07-25 06:10:00,
2013-07-24 23:15:00,71.1,48.7,29.82,West,261,0.0,0.0,45,0.00,,---,0.00,VWS V14.01,2013-07-25 06:15:00,
2013-07-24 23:20:00,70.2,48.5,29.82,NNW,333,2.0,2.0,46,0.00,,---,0.00,VWS V14.01,2013-07-25 06:20:00,
2013-07-24 23:25:00,70.2,47.9,29.82,NNW,333,0.0,4.0,45,0.00,,---,0.00,VWS V14.01,2013-07-25 06:25:00,
2013-07-24 23:30:00,70.1,49.5,29.82,NNW,333,0.0,0.0,48,0.00,,---,0.00,VWS V14.01,2013-07-25 06:30:00,
2013-07-24 23:35:00,68.9,48.4,29.82,NNW,333,0.0,3.0,48,0.00,,---,0.00,VWS V14.01,2013-07-25 06:35:00,
2013-07-24 23:40:00,68.7,49.3,29.82,NNW,333,0.0,3.0,50,0.00,,---,0.00,VWS V14.01,2013-07-25 06:40:00,
2013-07-24 23:45:00,67.8,48.5,29.82,NNW,333,0.0,0.0,50,0.00,,---,0.00,VWS V14.01,2013-07-25 06:45:00,
2013-07-24 23:50:00,67.7,48.4,29.82,NNW,333,0.0,0.0,50,0.00,,---,0.00,VWS V14.01,2013-07-25 06:50:00,
2013-07-24 23:55:00,68.1,47.7,29.83,NNW,333,0.0,0.0,48,0.00,,---,0.00,VWS V14.01,2013-07-25 06:55:00,